User: anonymous   Login
Location: Turtle Rock Observatory
(36.6913°N, 81.9708°W)
Time: 23:33:36
(UTC-04:00)
Language:

TITAN 4B R/B - Orbit

View from above orbital plane
View from above orbital plane
View from above satellite
View from above satellite

Ground track
Ground track

The orbit data is extracted from the following two-line orbital elements,

1 28647U 05016B   15239.87968255 0.00001100  00000-0  66084-4 0    02
2 28647  56.9966 169.7449 0133056 217.4638 142.5361 15.03244586    09
Epoch (UTC): 27 August 2015 21:06:44
Eccentricity: 0.0133056
inclination: 56.9966°
perigee height: 464 km
apogee height: 649 km
right ascension of ascending node: 169.7449°
argument of perigee: 217.4638°
revolutions per day: 15.03244586
mean anomaly at epoch: 142.5361°
orbit number at epoch: 0

The dashed part of the orbit path shows where the satellite is in the earth's shadow,  

DLR